Preview of NWS' New Version of Forecast
This preview is not operational and should not be used for support decisions.

Regional Weather Roundup (RWR)

Issued by National Weather Service (NWS)

                            
000
ASCA42 TJSJ 172110
RWRPR 
PUERTO RICO/U.S. VIRGIN ISLANDS HOURLY WEATHER ROUNDUP
NATIONAL WEATHER SERVICE SAN JUAN PR
500 PM AST FRI MAY 17 2019

PRZ001>002-007>008-010-172200-
PUERTO RICO
  
CITY           SKY/WX    TMP DP  RH WIND       PRES   REMARKS
SAN JUAN LMM   MOSUNNY   84  73  70 E16G24    29.94S HX  91           
AGUADILLA      MOSUNNY   82  73  74 E16       29.96S                  
CEIBA          SUNNY     86  72  62 E9        29.96S HX  92           
$$

VIZ001>002-172200-
U.S. VIRGIN ISLANDS
  
CITY           SKY/WX    TMP DP  RH WIND       PRES   REMARKS
CHARLOTTE AMA  SUNNY     84  72  65 SE14      29.94F                  
CHRISTIANSTED  MOSUNNY   84  72  65 E13       29.95F                  
$$

HOURLY WEATHER ROUNDUP FOR THE NEWS MEDIA
  
CITY           SKY/WX    TMP DP  RH WIND       PRES   REMARKS
ORLANDO        FAIR      86  55  34 E7        30.00F                  
NEW YORK       PTSUNNY   70  59  68 S7        29.73S                  
NEWARK         PTSUNNY   78  56  46 W15G21    29.71S                  
CHICAGO        CLOUDY    50  39  66 NE12      29.94R                  
HARTFORD       LGT RAIN  59  58  96 SW6       29.74S                  
BOSTON         LGT RAIN  62  58  86 S5        29.72F FOG              
DALLAS         PTSUNNY   86  66  51 SE16      29.77F                  
PHILADELPHIA   PTSUNNY   82  58  43 SW15      29.75R                  
LOS ANGELES    MOSUNNY   68  46  45 W23       30.01F                  
WASHINGTON DC  PTSUNNY   80  62  54 W7        29.80S